Location: Unspecified
(54.1780°N, 0.0000°E)
Time: 06:38:55
(UTC+00:00)

Tiros 1 - Pass Details

Date: 20 June 2019
Orbit: 630 x 664 km, 48.4° (Epoch: 15 July)

Event Time Altitude Azimuth Distance (km) Brightness Sun altitude
Rises 03:36:37 0° 264° (W) 2,931 10.0 0.3°
Reaches altitude 10° 03:39:03 10° 256° (WSW) 2,018 9.2 0.6°
Maximum altitude 03:43:22 39° 188° (S) 954 7.7 1.0°
Drops below altitude 10° 03:47:38 10° 121° (ESE) 2,007 10.0 1.5°
Sets 03:50:04 0° 113° (ESE) 2,914 10.9 1.8°
